Year,Month,Day,Hour,Minute,Value (Times are PST for temperature in C)
2013,05,21,00,00,10.10
2013,05,21,00,01,10.10
2013,05,21,00,02,10.10
2013,05,21,00,03,10.10
2013,05,21,00,04,10.10
2013,05,21,00,05,10.10
2013,05,21,00,06,10.10
2013,05,21,00,07,10.10
2013,05,21,00,08,10.10
2013,05,21,00,09,10.10
2013,05,21,00,10,10.10
2013,05,21,00,11,10.10
2013,05,21,00,12,10.00
2013,05,21,00,13,9.90
2013,05,21,00,14,9.90
2013,05,21,00,15,9.80
2013,05,21,00,16,9.80
2013,05,21,00,17,9.90
2013,05,21,00,18,9.90
2013,05,21,00,19,9.90
2013,05,21,00,20,9.80
2013,05,21,00,21,9.80
2013,05,21,00,22,9.80
2013,05,21,00,23,9.80
2013,05,21,00,24,9.80
2013,05,21,00,25,9.80
2013,05,21,00,26,9.80
2013,05,21,00,27,9.70
2013,05,21,00,28,9.70
2013,05,21,00,29,9.70
2013,05,21,00,30,9.60
2013,05,21,00,31,9.60
2013,05,21,00,32,9.50
2013,05,21,00,33,9.50
2013,05,21,00,34,9.40
2013,05,21,00,35,9.30
2013,05,21,00,36,9.30
2013,05,21,00,37,9.30
2013,05,21,00,38,9.30
2013,05,21,00,39,9.20
2013,05,21,00,40,9.20
2013,05,21,00,41,9.20
2013,05,21,00,42,9.20
2013,05,21,00,43,9.20
2013,05,21,00,44,9.20
2013,05,21,00,45,9.20
2013,05,21,00,46,9.20
2013,05,21,00,47,9.20
2013,05,21,00,48,9.20
2013,05,21,00,49,9.20
2013,05,21,00,50,9.20
2013,05,21,00,51,9.20
2013,05,21,00,52,9.20
2013,05,21,00,53,9.20
2013,05,21,00,54,9.20
2013,05,21,00,55,9.20
2013,05,21,00,56,9.20
2013,05,21,00,57,9.20
2013,05,21,00,58,9.10
2013,05,21,00,59,9.10
2013,05,21,01,00,9.10
2013,05,21,01,01,9.10
2013,05,21,01,02,9.10
2013,05,21,01,03,9.10
2013,05,21,01,04,9.10
2013,05,21,01,05,9.10
2013,05,21,01,06,9.10
2013,05,21,01,07,9.10
2013,05,21,01,08,9.10
2013,05,21,01,09,9.10
2013,05,21,01,10,9.20
2013,05,21,01,11,9.20
2013,05,21,01,12,9.20
2013,05,21,01,13,9.20
2013,05,21,01,14,9.20
2013,05,21,01,15,9.10
2013,05,21,01,16,9.10
2013,05,21,01,17,9.10
2013,05,21,01,18,9.10
2013,05,21,01,19,9.10
2013,05,21,01,20,9.10
2013,05,21,01,21,9.10
2013,05,21,01,22,9.10
2013,05,21,01,23,9.10
2013,05,21,01,24,9.10
2013,05,21,01,25,9.10
2013,05,21,01,26,9.10
2013,05,21,01,27,9.10
2013,05,21,01,28,9.10
2013,05,21,01,29,9.10
2013,05,21,01,30,9.10
2013,05,21,01,31,9.10
2013,05,21,01,32,9.10
2013,05,21,01,33,9.10
2013,05,21,01,34,9.10
2013,05,21,01,35,9.10
2013,05,21,01,36,9.10
2013,05,21,01,37,9.10
2013,05,21,01,38,9.10
2013,05,21,01,39,9.10
2013,05,21,01,40,9.10
2013,05,21,01,41,9.10
2013,05,21,01,42,9.10
2013,05,21,01,43,9.10
2013,05,21,01,44,9.10
2013,05,21,01,45,9.10
2013,05,21,01,46,9.10
2013,05,21,01,47,9.00
2013,05,21,01,48,9.00
2013,05,21,01,49,9.00
2013,05,21,01,50,9.00
2013,05,21,01,51,8.90
2013,05,21,01,52,8.90
2013,05,21,01,53,8.90
2013,05,21,01,54,8.90
2013,05,21,01,55,8.90
2013,05,21,01,56,8.90
2013,05,21,01,57,8.90
2013,05,21,01,58,8.90
2013,05,21,01,59,8.90
2013,05,21,02,00,8.90
2013,05,21,02,01,8.90
2013,05,21,02,02,8.90
2013,05,21,02,03,8.90
2013,05,21,02,04,8.90
2013,05,21,02,05,8.90
2013,05,21,02,06,8.90
2013,05,21,02,07,8.90
2013,05,21,02,08,8.90
2013,05,21,02,09,8.90
2013,05,21,02,10,8.90
2013,05,21,02,11,8.90
2013,05,21,02,12,8.90
2013,05,21,02,13,8.90
2013,05,21,02,14,8.90
2013,05,21,02,15,8.90
2013,05,21,02,16,8.90
2013,05,21,02,17,8.90
2013,05,21,02,18,8.90
2013,05,21,02,19,8.90
2013,05,21,02,20,8.90
2013,05,21,02,21,8.90
2013,05,21,02,22,8.90
2013,05,21,02,23,8.90
2013,05,21,02,24,8.80
2013,05,21,02,25,8.80
2013,05,21,02,26,8.80
2013,05,21,02,27,8.80
2013,05,21,02,28,8.80
2013,05,21,02,29,8.80
2013,05,21,02,30,8.80
2013,05,21,02,31,8.80
2013,05,21,02,32,8.70
2013,05,21,02,33,8.70
2013,05,21,02,34,8.70
2013,05,21,02,35,8.70
2013,05,21,02,36,8.70
2013,05,21,02,37,8.70
2013,05,21,02,38,8.70
2013,05,21,02,39,8.70
2013,05,21,02,40,8.70
2013,05,21,02,41,8.70
2013,05,21,02,42,8.70
2013,05,21,02,43,8.70
2013,05,21,02,44,8.70
2013,05,21,02,45,8.70
2013,05,21,02,46,8.70
2013,05,21,02,47,8.70
2013,05,21,02,48,8.70
2013,05,21,02,49,8.70
2013,05,21,02,50,8.70
2013,05,21,02,51,8.80
2013,05,21,02,52,8.80
2013,05,21,02,53,8.80
2013,05,21,02,54,8.80
2013,05,21,02,55,8.80
2013,05,21,02,56,8.70
2013,05,21,02,57,8.70
2013,05,21,02,58,8.70
2013,05,21,02,59,8.70
2013,05,21,03,00,8.70
2013,05,21,03,01,8.70
2013,05,21,03,02,8.70
2013,05,21,03,03,8.70
2013,05,21,03,04,8.70
2013,05,21,03,05,8.70
2013,05,21,03,06,8.70
2013,05,21,03,07,8.70
2013,05,21,03,08,8.70
2013,05,21,03,09,8.70
2013,05,21,03,10,8.70
2013,05,21,03,11,8.70
2013,05,21,03,12,8.70
2013,05,21,03,13,8.60
2013,05,21,03,14,8.60
2013,05,21,03,15,8.60
2013,05,21,03,16,8.60
2013,05,21,03,17,8.60
2013,05,21,03,18,8.60
2013,05,21,03,19,8.60
2013,05,21,03,20,8.60
2013,05,21,03,21,8.60
2013,05,21,03,22,8.60
2013,05,21,03,23,8.60
2013,05,21,03,24,8.60
2013,05,21,03,25,8.60
2013,05,21,03,26,8.60
2013,05,21,03,27,8.70
2013,05,21,03,28,8.70
2013,05,21,03,29,8.70
2013,05,21,03,30,8.70
2013,05,21,03,31,8.70
2013,05,21,03,32,8.80
2013,05,21,03,33,8.80
2013,05,21,03,34,8.80
2013,05,21,03,35,8.80
2013,05,21,03,36,8.80
2013,05,21,03,37,8.80
2013,05,21,03,38,8.80
2013,05,21,03,39,8.80
2013,05,21,03,40,8.80
2013,05,21,03,41,8.80
2013,05,21,03,42,8.70
2013,05,21,03,43,8.70
2013,05,21,03,44,8.70
2013,05,21,03,45,8.70
2013,05,21,03,46,8.70
2013,05,21,03,47,8.70
2013,05,21,03,48,8.80
2013,05,21,03,49,8.70
2013,05,21,03,50,8.70
2013,05,21,03,51,8.70
2013,05,21,03,52,8.70
2013,05,21,03,53,8.70
2013,05,21,03,54,8.70
2013,05,21,03,55,8.70
2013,05,21,03,56,8.70
2013,05,21,03,57,8.70
2013,05,21,03,58,8.70
2013,05,21,03,59,8.70
2013,05,21,04,00,8.70
2013,05,21,04,01,8.70
2013,05,21,04,02,8.60
2013,05,21,04,03,8.60
2013,05,21,04,04,8.60
2013,05,21,04,05,8.60
2013,05,21,04,06,8.60
2013,05,21,04,07,8.60
2013,05,21,04,08,8.60
2013,05,21,04,09,8.60
2013,05,21,04,10,8.60
2013,05,21,04,11,8.60
2013,05,21,04,12,8.60
2013,05,21,04,13,8.60
2013,05,21,04,14,8.60
2013,05,21,04,15,8.60
2013,05,21,04,16,8.60
2013,05,21,04,17,8.60
2013,05,21,04,18,8.60
2013,05,21,04,19,8.60
2013,05,21,04,20,8.60
2013,05,21,04,21,8.60
2013,05,21,04,22,8.60
2013,05,21,04,23,8.60
2013,05,21,04,24,8.60
2013,05,21,04,25,8.60
2013,05,21,04,26,8.60
2013,05,21,04,27,8.60
2013,05,21,04,28,8.60
2013,05,21,04,29,8.60
2013,05,21,04,30,8.60
2013,05,21,04,31,8.60
2013,05,21,04,32,8.60
2013,05,21,04,33,8.60
2013,05,21,04,34,8.60
2013,05,21,04,35,8.60
2013,05,21,04,36,8.60
2013,05,21,04,37,8.50
2013,05,21,04,38,8.50
2013,05,21,04,39,8.50
2013,05,21,04,40,8.50
2013,05,21,04,41,8.50
2013,05,21,04,42,8.50
2013,05,21,04,43,8.50
2013,05,21,04,44,8.40
2013,05,21,04,45,8.40
2013,05,21,04,46,8.40
2013,05,21,04,47,8.40
2013,05,21,04,48,8.40
2013,05,21,04,49,8.40
2013,05,21,04,50,8.40
2013,05,21,04,51,8.30
2013,05,21,04,52,8.30
2013,05,21,04,53,8.30
2013,05,21,04,54,8.30
2013,05,21,04,55,8.30
2013,05,21,04,56,8.30
2013,05,21,04,57,8.30
2013,05,21,04,58,8.30
2013,05,21,04,59,8.30
2013,05,21,05,00,8.30
2013,05,21,05,01,8.20
2013,05,21,05,02,8.20
2013,05,21,05,03,8.20
2013,05,21,05,04,8.20
2013,05,21,05,05,8.20
2013,05,21,05,06,8.20
2013,05,21,05,07,8.20
2013,05,21,05,08,8.20
2013,05,21,05,09,8.20
2013,05,21,05,10,8.20
2013,05,21,05,11,8.20
2013,05,21,05,12,8.20
2013,05,21,05,13,8.20
2013,05,21,05,14,8.10
2013,05,21,05,15,8.10
2013,05,21,05,16,8.10
2013,05,21,05,17,8.10
2013,05,21,05,18,8.10
2013,05,21,05,19,8.10
2013,05,21,05,20,8.10
2013,05,21,05,21,8.10
2013,05,21,05,22,8.10
2013,05,21,05,23,8.10
2013,05,21,05,24,8.10
2013,05,21,05,25,8.10
2013,05,21,05,26,8.10
2013,05,21,05,27,8.10
2013,05,21,05,28,8.00
2013,05,21,05,29,8.00
2013,05,21,05,30,8.00
2013,05,21,05,31,8.00
2013,05,21,05,32,8.00
2013,05,21,05,33,8.00
2013,05,21,05,34,8.10
2013,05,21,05,35,8.10
2013,05,21,05,36,8.10
2013,05,21,05,37,8.10
2013,05,21,05,38,8.10
2013,05,21,05,39,8.10
2013,05,21,05,40,8.10
2013,05,21,05,41,8.10
2013,05,21,05,42,8.10
2013,05,21,05,43,8.10
2013,05,21,05,44,8.10
2013,05,21,05,45,8.10
2013,05,21,05,46,8.10
2013,05,21,05,47,8.10
2013,05,21,05,48,8.10
2013,05,21,05,49,8.10
2013,05,21,05,50,8.10
2013,05,21,05,51,8.10
2013,05,21,05,52,8.10
2013,05,21,05,53,8.20
2013,05,21,05,54,8.20
2013,05,21,05,55,8.10
2013,05,21,05,56,8.10
2013,05,21,05,57,8.10
2013,05,21,05,58,8.20
2013,05,21,05,59,8.20
2013,05,21,06,00,8.20
2013,05,21,06,01,8.20
2013,05,21,06,02,8.20
2013,05,21,06,03,8.20
2013,05,21,06,04,8.20
2013,05,21,06,05,8.20
2013,05,21,06,06,8.20
2013,05,21,06,07,8.20
2013,05,21,06,08,8.10
2013,05,21,06,09,8.10
2013,05,21,06,10,8.10
2013,05,21,06,11,8.10
2013,05,21,06,12,8.10
2013,05,21,06,13,8.10
2013,05,21,06,14,8.10
2013,05,21,06,15,8.10
2013,05,21,06,16,8.10
2013,05,21,06,17,8.10
2013,05,21,06,18,8.10
2013,05,21,06,19,8.10
2013,05,21,06,20,8.10
2013,05,21,06,21,8.10
2013,05,21,06,22,8.00
2013,05,21,06,23,8.00
2013,05,21,06,24,8.00
2013,05,21,06,25,8.10
2013,05,21,06,26,8.10
2013,05,21,06,27,8.10
2013,05,21,06,28,8.10
2013,05,21,06,29,8.10
2013,05,21,06,30,8.10
2013,05,21,06,31,8.10
2013,05,21,06,32,8.10
2013,05,21,06,33,8.10
2013,05,21,06,34,8.10
2013,05,21,06,35,8.10
2013,05,21,06,36,8.10
2013,05,21,06,37,8.10
2013,05,21,06,38,8.10
2013,05,21,06,39,8.10
2013,05,21,06,40,8.10
2013,05,21,06,41,8.10
2013,05,21,06,42,8.10
2013,05,21,06,43,8.10
2013,05,21,06,44,8.10
2013,05,21,06,45,8.10
2013,05,21,06,46,8.10
2013,05,21,06,47,8.10
2013,05,21,06,48,8.10
2013,05,21,06,49,8.10
2013,05,21,06,50,8.10
2013,05,21,06,51,8.10
2013,05,21,06,52,8.10
2013,05,21,06,53,8.10
2013,05,21,06,54,8.10
2013,05,21,06,55,8.10
2013,05,21,06,56,8.10
2013,05,21,06,57,8.20
2013,05,21,06,58,8.20
2013,05,21,06,59,8.20
2013,05,21,07,00,8.20
2013,05,21,07,01,8.20
2013,05,21,07,02,8.20
2013,05,21,07,03,8.20
2013,05,21,07,04,8.20
2013,05,21,07,05,8.20
2013,05,21,07,06,8.20
2013,05,21,07,07,8.20
2013,05,21,07,08,8.20
2013,05,21,07,09,8.20
2013,05,21,07,10,8.20
2013,05,21,07,11,8.20
2013,05,21,07,12,8.20
2013,05,21,07,13,8.20
2013,05,21,07,14,8.20
2013,05,21,07,15,8.20
2013,05,21,07,16,8.20
2013,05,21,07,17,8.20
2013,05,21,07,18,8.20
2013,05,21,07,19,8.20
2013,05,21,07,20,8.30
2013,05,21,07,21,8.30
2013,05,21,07,22,8.30
2013,05,21,07,23,8.30
2013,05,21,07,24,8.30
2013,05,21,07,25,8.30
2013,05,21,07,26,8.30
2013,05,21,07,27,8.30
2013,05,21,07,28,8.30
2013,05,21,07,29,8.30
2013,05,21,07,30,8.40
2013,05,21,07,31,8.40
2013,05,21,07,32,8.40
2013,05,21,07,33,8.40
2013,05,21,07,34,8.50
2013,05,21,07,35,8.50
2013,05,21,07,36,8.50
2013,05,21,07,37,8.60
2013,05,21,07,38,8.60
2013,05,21,07,39,8.60
2013,05,21,07,40,8.60
2013,05,21,07,41,8.60
2013,05,21,07,42,8.60
2013,05,21,07,43,8.50
2013,05,21,07,44,8.50
2013,05,21,07,45,8.50
2013,05,21,07,46,8.50
2013,05,21,07,47,8.50
2013,05,21,07,48,8.50
2013,05,21,07,49,8.60
2013,05,21,07,50,8.60
2013,05,21,07,51,8.60
2013,05,21,07,52,8.60
2013,05,21,07,53,8.60
2013,05,21,07,54,8.60
2013,05,21,07,55,8.60
2013,05,21,07,56,8.60
2013,05,21,07,57,8.60
2013,05,21,07,58,8.60
2013,05,21,07,59,8.60
2013,05,21,08,00,8.60
2013,05,21,08,01,8.60
2013,05,21,08,02,8.60
2013,05,21,08,03,8.60
2013,05,21,08,04,8.60
2013,05,21,08,05,8.60
2013,05,21,08,06,8.70
2013,05,21,08,07,8.70
2013,05,21,08,08,8.70
2013,05,21,08,09,8.70
2013,05,21,08,10,8.70
2013,05,21,08,11,8.70
2013,05,21,08,12,8.70
2013,05,21,08,13,8.60
2013,05,21,08,14,8.60
2013,05,21,08,15,8.60
2013,05,21,08,16,8.70
2013,05,21,08,17,8.70
2013,05,21,08,18,8.60
2013,05,21,08,19,8.70
2013,05,21,08,20,8.70
2013,05,21,08,21,8.70
2013,05,21,08,22,8.70
2013,05,21,08,23,8.70
2013,05,21,08,24,8.70
2013,05,21,08,25,8.70
2013,05,21,08,26,8.70
2013,05,21,08,27,8.60
2013,05,21,08,28,8.60
2013,05,21,08,29,8.60
2013,05,21,08,30,8.60
2013,05,21,08,31,8.60
2013,05,21,08,32,8.60
2013,05,21,08,33,8.60
2013,05,21,08,34,8.60
2013,05,21,08,35,8.60
2013,05,21,08,36,8.60
2013,05,21,08,37,8.60
2013,05,21,08,38,8.70
2013,05,21,08,39,8.70
2013,05,21,08,40,8.70
2013,05,21,08,41,8.70
2013,05,21,08,42,8.70
2013,05,21,08,43,8.70
2013,05,21,08,44,8.70
2013,05,21,08,45,8.80
2013,05,21,08,46,8.80
2013,05,21,08,47,8.80
2013,05,21,08,48,8.80
2013,05,21,08,49,8.80
2013,05,21,08,50,8.90
2013,05,21,08,51,8.90
2013,05,21,08,52,8.90
2013,05,21,08,53,9.00
2013,05,21,08,54,9.00
2013,05,21,08,55,9.10
2013,05,21,08,56,9.10
2013,05,21,08,57,9.20
2013,05,21,08,58,9.20
2013,05,21,08,59,9.20
2013,05,21,09,00,9.20
2013,05,21,09,01,9.20
2013,05,21,09,02,9.20
2013,05,21,09,03,9.20
2013,05,21,09,04,9.30
2013,05,21,09,05,9.30
2013,05,21,09,06,9.30
2013,05,21,09,07,9.30
2013,05,21,09,08,9.40
2013,05,21,09,09,9.50
2013,05,21,09,10,9.50
2013,05,21,09,11,9.60
2013,05,21,09,12,9.60
2013,05,21,09,13,9.60
2013,05,21,09,14,9.60
2013,05,21,09,15,9.60
2013,05,21,09,16,9.60
2013,05,21,09,17,9.70
2013,05,21,09,18,9.80
2013,05,21,09,19,9.80
2013,05,21,09,20,9.90
2013,05,21,09,21,10.10
2013,05,21,09,22,10.20
2013,05,21,09,23,10.20
2013,05,21,09,24,10.30
2013,05,21,09,25,10.20
2013,05,21,09,26,10.20
2013,05,21,09,27,10.20
2013,05,21,09,28,10.20
2013,05,21,09,29,10.10
2013,05,21,09,30,10.20
2013,05,21,09,31,10.20
2013,05,21,09,32,10.20
2013,05,21,09,33,10.20
2013,05,21,09,34,10.30
2013,05,21,09,35,10.30
2013,05,21,09,36,10.20
2013,05,21,09,37,10.20
2013,05,21,09,38,10.20
2013,05,21,09,39,10.20
2013,05,21,09,40,10.30
2013,05,21,09,41,10.30
2013,05,21,09,42,10.30
2013,05,21,09,43,10.30
2013,05,21,09,44,10.30
2013,05,21,09,45,10.30
2013,05,21,09,46,10.30
2013,05,21,09,47,10.30
2013,05,21,09,48,10.40
2013,05,21,09,49,10.40
2013,05,21,09,50,10.40
2013,05,21,09,51,10.40
2013,05,21,09,52,10.40
2013,05,21,09,53,10.40
2013,05,21,09,54,10.40
2013,05,21,09,55,10.40
2013,05,21,09,56,10.40
2013,05,21,09,57,10.40
2013,05,21,09,58,10.50
2013,05,21,09,59,10.50
2013,05,21,10,00,10.60
2013,05,21,10,01,10.60
2013,05,21,10,02,10.60
2013,05,21,10,03,10.60
2013,05,21,10,04,10.50
2013,05,21,10,05,10.40
2013,05,21,10,06,10.30
2013,05,21,10,07,10.20
2013,05,21,10,08,10.10
2013,05,21,10,09,10.00
2013,05,21,10,10,9.90
2013,05,21,10,11,9.90
2013,05,21,10,12,9.80
2013,05,21,10,13,9.80
2013,05,21,10,14,9.80
2013,05,21,10,15,9.70
2013,05,21,10,16,9.70
2013,05,21,10,17,9.70
2013,05,21,10,18,9.80
2013,05,21,10,19,9.80
2013,05,21,10,20,9.80
2013,05,21,10,21,9.80
2013,05,21,10,22,9.80
2013,05,21,10,23,9.80
2013,05,21,10,24,9.80
2013,05,21,10,25,9.80
2013,05,21,10,26,9.80
2013,05,21,10,27,9.80
2013,05,21,10,28,9.80
2013,05,21,10,29,9.80
2013,05,21,10,30,9.80
2013,05,21,10,31,9.80
2013,05,21,10,32,9.80
2013,05,21,10,33,9.80
2013,05,21,10,34,9.80
2013,05,21,10,35,9.80
2013,05,21,10,36,9.80
2013,05,21,10,37,9.70
2013,05,21,10,38,9.70
2013,05,21,10,39,9.80
2013,05,21,10,40,9.80
2013,05,21,10,41,9.80
2013,05,21,10,42,9.80
2013,05,21,10,43,9.80
2013,05,21,10,44,9.70
2013,05,21,10,45,9.70
2013,05,21,10,46,9.70
2013,05,21,10,47,9.70
2013,05,21,10,48,9.60
2013,05,21,10,49,9.60
2013,05,21,10,50,9.60
2013,05,21,10,51,9.60
2013,05,21,10,52,9.60
2013,05,21,10,53,9.60
2013,05,21,10,54,9.60
2013,05,21,10,55,9.60
2013,05,21,10,56,9.70
2013,05,21,10,57,9.70
2013,05,21,10,58,9.70
2013,05,21,10,59,9.70
2013,05,21,11,00,9.70
2013,05,21,11,01,9.70
2013,05,21,11,02,9.70
2013,05,21,11,03,9.60
2013,05,21,11,04,9.70
2013,05,21,11,05,9.70
2013,05,21,11,06,9.70
2013,05,21,11,07,9.70
2013,05,21,11,08,9.70
2013,05,21,11,09,9.70
2013,05,21,11,10,9.80
2013,05,21,11,11,9.70
2013,05,21,11,12,9.80
2013,05,21,11,13,9.80
2013,05,21,11,14,9.70
2013,05,21,11,15,9.80
2013,05,21,11,16,9.80
2013,05,21,11,17,9.80
2013,05,21,11,18,9.80
2013,05,21,11,19,9.80
2013,05,21,11,20,9.80
2013,05,21,11,21,9.80
2013,05,21,11,22,9.80
2013,05,21,11,23,9.80
2013,05,21,11,24,9.80
2013,05,21,11,25,9.80
2013,05,21,11,26,9.80
2013,05,21,11,27,9.80
2013,05,21,11,28,9.80
2013,05,21,11,29,9.80
2013,05,21,11,30,9.70
2013,05,21,11,31,9.80
2013,05,21,11,32,9.80
2013,05,21,11,33,9.80
2013,05,21,11,34,9.80
2013,05,21,11,35,9.90
2013,05,21,11,36,9.90
2013,05,21,11,37,9.90
2013,05,21,11,38,9.90
2013,05,21,11,39,10.00
2013,05,21,11,40,10.00
2013,05,21,11,41,10.00
2013,05,21,11,42,10.00
2013,05,21,11,43,10.00
2013,05,21,11,44,10.10
2013,05,21,11,45,10.10
2013,05,21,11,46,10.10
2013,05,21,11,47,10.10
2013,05,21,11,48,10.10
2013,05,21,11,49,10.10
2013,05,21,11,50,10.20
2013,05,21,11,51,10.20
2013,05,21,11,52,10.20
2013,05,21,11,53,10.20
2013,05,21,11,54,10.20
2013,05,21,11,55,10.30
2013,05,21,11,56,10.30
2013,05,21,11,57,10.30
2013,05,21,11,58,10.30
2013,05,21,11,59,10.30
2013,05,21,12,00,10.30
2013,05,21,12,01,10.30
2013,05,21,12,02,10.30
2013,05,21,12,03,10.30
2013,05,21,12,04,10.40
2013,05,21,12,05,10.40
2013,05,21,12,06,10.50
2013,05,21,12,07,10.50
2013,05,21,12,08,10.60
2013,05,21,12,09,10.60
2013,05,21,12,10,10.70
2013,05,21,12,11,10.70
2013,05,21,12,12,10.70
2013,05,21,12,13,10.80
2013,05,21,12,14,10.90
2013,05,21,12,15,10.90
2013,05,21,12,16,11.00
2013,05,21,12,17,10.90
2013,05,21,12,18,10.90
2013,05,21,12,19,10.90
2013,05,21,12,20,10.90
2013,05,21,12,21,10.90
2013,05,21,12,22,10.80
2013,05,21,12,23,10.80
2013,05,21,12,24,10.80
2013,05,21,12,25,10.90
2013,05,21,12,26,11.00
2013,05,21,12,27,11.00
2013,05,21,12,28,11.10
2013,05,21,12,29,11.10
2013,05,21,12,30,11.10
2013,05,21,12,31,11.10
2013,05,21,12,32,11.10
2013,05,21,12,33,11.00
2013,05,21,12,34,10.90
2013,05,21,12,35,10.90
2013,05,21,12,36,10.90
2013,05,21,12,37,10.80
2013,05,21,12,38,10.80
2013,05,21,12,39,10.80
2013,05,21,12,40,10.80
2013,05,21,12,41,10.80
2013,05,21,12,42,10.80
2013,05,21,12,43,10.80
2013,05,21,12,44,10.80
2013,05,21,12,45,10.80
2013,05,21,12,46,10.70
2013,05,21,12,47,10.70
2013,05,21,12,48,10.70
2013,05,21,12,49,10.70
2013,05,21,12,50,10.70
2013,05,21,12,51,10.60
2013,05,21,12,52,10.60
2013,05,21,12,53,10.60
2013,05,21,12,54,10.60
2013,05,21,12,55,10.50
2013,05,21,12,56,10.50
2013,05,21,12,57,10.40
2013,05,21,12,58,10.40
2013,05,21,12,59,10.40
2013,05,21,13,00,10.40
2013,05,21,13,01,10.40
2013,05,21,13,02,10.40
2013,05,21,13,03,10.40
2013,05,21,13,04,10.40
2013,05,21,13,05,10.40
2013,05,21,13,06,10.40
2013,05,21,13,07,10.40
2013,05,21,13,08,10.40
2013,05,21,13,09,10.40
2013,05,21,13,10,10.40
2013,05,21,13,11,10.40
2013,05,21,13,12,10.30
2013,05,21,13,13,10.30
2013,05,21,13,14,10.30
2013,05,21,13,15,10.20
2013,05,21,13,16,10.20
2013,05,21,13,17,10.20
2013,05,21,13,18,10.10
2013,05,21,13,19,10.10
2013,05,21,13,20,10.10
2013,05,21,13,21,10.10
2013,05,21,13,22,10.10
2013,05,21,13,23,10.10
2013,05,21,13,24,10.10
2013,05,21,13,25,10.10
2013,05,21,13,26,10.10
2013,05,21,13,27,10.20
2013,05,21,13,28,10.20
2013,05,21,13,29,10.20
2013,05,21,13,30,10.20
2013,05,21,13,31,10.20
2013,05,21,13,32,10.20
2013,05,21,13,33,10.20
2013,05,21,13,34,10.20
2013,05,21,13,35,10.20
2013,05,21,13,36,10.20
2013,05,21,13,37,10.20
2013,05,21,13,38,10.20
2013,05,21,13,39,10.20
2013,05,21,13,40,10.30
2013,05,21,13,41,10.30
2013,05,21,13,42,10.30
2013,05,21,13,43,10.30
2013,05,21,13,44,10.40
2013,05,21,13,45,10.40
2013,05,21,13,46,10.50
2013,05,21,13,47,10.50
2013,05,21,13,48,10.50
2013,05,21,13,49,10.60
2013,05,21,13,50,10.60
2013,05,21,13,51,10.70
2013,05,21,13,52,10.70
2013,05,21,13,53,10.70
2013,05,21,13,54,10.80
2013,05,21,13,55,10.80
2013,05,21,13,56,10.90
2013,05,21,13,57,10.90
2013,05,21,13,58,10.90
2013,05,21,13,59,11.00
2013,05,21,14,00,11.00
2013,05,21,14,01,11.00
2013,05,21,14,02,11.00
2013,05,21,14,03,11.10
2013,05,21,14,04,11.00
2013,05,21,14,05,11.00
2013,05,21,14,06,11.00
2013,05,21,14,07,11.00
2013,05,21,14,08,11.00
2013,05,21,14,09,10.90
2013,05,21,14,10,10.90
2013,05,21,14,11,10.90
2013,05,21,14,12,10.90
2013,05,21,14,13,11.00
2013,05,21,14,14,11.10
2013,05,21,14,15,11.20
2013,05,21,14,16,11.20
2013,05,21,14,17,11.20
2013,05,21,14,18,11.20
2013,05,21,14,19,11.20
2013,05,21,14,20,11.20
2013,05,21,14,21,11.30
2013,05,21,14,22,11.30
2013,05,21,14,23,11.30
2013,05,21,14,24,11.40
2013,05,21,14,25,11.40
2013,05,21,14,26,11.30
2013,05,21,14,27,11.30
2013,05,21,14,28,11.30
2013,05,21,14,29,11.30
2013,05,21,14,30,11.30
2013,05,21,14,31,11.20
2013,05,21,14,32,11.20
2013,05,21,14,33,11.30
2013,05,21,14,34,11.30
2013,05,21,14,35,11.30
2013,05,21,14,36,11.30
2013,05,21,14,37,11.40
2013,05,21,14,38,11.40
2013,05,21,14,39,11.30
2013,05,21,14,40,11.30
2013,05,21,14,41,11.30
2013,05,21,14,42,11.30
2013,05,21,14,43,11.20
2013,05,21,14,44,11.20
2013,05,21,14,45,11.20
2013,05,21,14,46,11.30
2013,05,21,14,47,11.40
2013,05,21,14,48,11.50
2013,05,21,14,49,11.50
2013,05,21,14,50,11.50
2013,05,21,14,51,11.50
2013,05,21,14,52,11.50
2013,05,21,14,53,11.40
2013,05,21,14,54,11.40
2013,05,21,14,55,11.40
2013,05,21,14,56,11.30
2013,05,21,14,57,11.30
2013,05,21,14,58,11.20
2013,05,21,14,59,11.20
2013,05,21,15,00,11.20
2013,05,21,15,01,11.10
2013,05,21,15,02,11.20
2013,05,21,15,03,11.20
2013,05,21,15,04,11.20
2013,05,21,15,05,11.30
2013,05,21,15,06,11.30
2013,05,21,15,07,11.30
2013,05,21,15,08,11.40
2013,05,21,15,09,11.50
2013,05,21,15,10,11.60
2013,05,21,15,11,11.70
2013,05,21,15,12,11.70
2013,05,21,15,13,11.70
2013,05,21,15,14,11.70
2013,05,21,15,15,11.70
2013,05,21,15,16,11.80
2013,05,21,15,17,11.80
2013,05,21,15,18,11.80
2013,05,21,15,19,11.80
2013,05,21,15,20,11.80
2013,05,21,15,21,11.70
2013,05,21,15,22,11.70
2013,05,21,15,23,11.70
2013,05,21,15,24,11.70
2013,05,21,15,25,11.80
2013,05,21,15,26,11.80
2013,05,21,15,27,11.90
2013,05,21,15,28,12.00
2013,05,21,15,29,12.00
2013,05,21,15,30,12.10
2013,05,21,15,31,12.10
2013,05,21,15,32,12.10
2013,05,21,15,33,12.10
2013,05,21,15,34,12.10
2013,05,21,15,35,12.20
2013,05,21,15,36,12.20
2013,05,21,15,37,12.30
2013,05,21,15,38,12.20
2013,05,21,15,39,12.10
2013,05,21,15,40,12.10
2013,05,21,15,41,12.10
2013,05,21,15,42,12.10
2013,05,21,15,43,12.20
2013,05,21,15,44,12.20
2013,05,21,15,45,12.20
2013,05,21,15,46,12.10
2013,05,21,15,47,12.10
2013,05,21,15,48,12.00
2013,05,21,15,49,12.00
2013,05,21,15,50,12.00
2013,05,21,15,51,11.90
2013,05,21,15,52,11.90
2013,05,21,15,53,11.80
2013,05,21,15,54,11.80
2013,05,21,15,55,11.80
2013,05,21,15,56,11.80
2013,05,21,15,57,11.80
2013,05,21,15,58,11.80
2013,05,21,15,59,11.80
2013,05,21,16,00,11.70
2013,05,21,16,01,11.70
2013,05,21,16,02,11.60
2013,05,21,16,03,11.60
2013,05,21,16,04,11.60
2013,05,21,16,05,11.60
2013,05,21,16,06,11.60
2013,05,21,16,07,11.60
2013,05,21,16,08,11.60
2013,05,21,16,09,11.60
2013,05,21,16,10,11.60
2013,05,21,16,11,11.60
2013,05,21,16,12,11.70
2013,05,21,16,13,11.60
2013,05,21,16,14,11.60
2013,05,21,16,15,11.60
2013,05,21,16,16,11.60
2013,05,21,16,17,11.50
2013,05,21,16,18,11.60
2013,05,21,16,19,11.60
2013,05,21,16,20,11.60
2013,05,21,16,21,11.60
2013,05,21,16,22,11.70
2013,05,21,16,23,11.60
2013,05,21,16,24,11.70
2013,05,21,16,25,11.80
2013,05,21,16,26,11.90
2013,05,21,16,27,12.10
2013,05,21,16,28,12.20
2013,05,21,16,29,12.20
2013,05,21,16,30,12.20
2013,05,21,16,31,12.20
2013,05,21,16,32,12.20
2013,05,21,16,33,12.20
2013,05,21,16,34,12.20
2013,05,21,16,35,12.30
2013,05,21,16,36,12.30
2013,05,21,16,37,12.20
2013,05,21,16,38,12.10
2013,05,21,16,39,12.00
2013,05,21,16,40,12.00
2013,05,21,16,41,11.90
2013,05,21,16,42,11.90
2013,05,21,16,43,12.00
2013,05,21,16,44,12.00
2013,05,21,16,45,12.10
2013,05,21,16,46,12.20
2013,05,21,16,47,12.20
2013,05,21,16,48,12.30
2013,05,21,16,49,12.40
2013,05,21,16,50,12.50
2013,05,21,16,51,12.60
2013,05,21,16,52,12.70
2013,05,21,16,53,12.70
2013,05,21,16,54,12.70
2013,05,21,16,55,12.60
2013,05,21,16,56,12.50
2013,05,21,16,57,12.50
2013,05,21,16,58,12.40
2013,05,21,16,59,12.40
2013,05,21,17,00,12.40
2013,05,21,17,01,12.40
2013,05,21,17,02,12.50
2013,05,21,17,03,12.50
2013,05,21,17,04,12.50
2013,05,21,17,05,12.60
2013,05,21,17,06,12.60
2013,05,21,17,07,12.60
2013,05,21,17,08,12.60
2013,05,21,17,09,12.60
2013,05,21,17,10,12.60
2013,05,21,17,11,12.40
2013,05,21,17,12,12.30
2013,05,21,17,13,12.20
2013,05,21,17,14,12.20
2013,05,21,17,15,12.20
2013,05,21,17,16,12.20
2013,05,21,17,17,12.10
2013,05,21,17,18,12.10
2013,05,21,17,19,12.20
2013,05,21,17,20,12.20
2013,05,21,17,21,12.10
2013,05,21,17,22,12.10
2013,05,21,17,23,12.10
2013,05,21,17,24,12.10
2013,05,21,17,25,12.10
2013,05,21,17,26,12.10
2013,05,21,17,27,12.20
2013,05,21,17,28,12.30
2013,05,21,17,29,12.30
2013,05,21,17,30,12.30
2013,05,21,17,31,12.30
2013,05,21,17,32,12.30
2013,05,21,17,33,12.30
2013,05,21,17,34,12.30
2013,05,21,17,35,12.30
2013,05,21,17,36,12.40
2013,05,21,17,37,12.40
2013,05,21,17,38,12.40
2013,05,21,17,39,12.40
2013,05,21,17,40,12.40
2013,05,21,17,41,12.40
2013,05,21,17,42,12.30
2013,05,21,17,43,12.30
2013,05,21,17,44,12.30
2013,05,21,17,45,12.30
2013,05,21,17,46,12.30
2013,05,21,17,47,12.30